Flag for Mongolia Weather past 2 weeks in Ulaanbaatar, Mongolia

12 °F

Passing clouds.

Feels Like: 12 °F
Forecast: 5 / 15 °F
Wind: No wind

Location: Ulan-Bator

Current Time: Nov 30, 2015 at 7:47:30 PM

Latest Report: Nov 30, 2015 at 7:00 PM

Visibility: 4 mi

Pressure: 29.68 "Hg (25.06 "Hg at 1298m altitude)

Humidity: 79%

Dew point: 7 °F

Location of UlaanbaatarLocation

Historic Weather in Ulaanbaatar — Graph


Ulaanbaatar temperature yesterday

Maximum temperature yesterday: 9 °F (at 12:00 AM)
Minimum temperature yesterday: -13 °F (at 9:00 PM)
Average temperature yesterday: 1 °F

Past Weeks' High & Low Weather Summary

High81 °F (Nov 21, 6:30 AM)92% (Nov 15, 7:00 PM)30.51 "Hg (Nov 15, 7:00 PM)
Low-35 °F (Nov 25, 7:00 AM)1% (Nov 21, 6:30 AM)29.62 "Hg (Nov 30, 1:00 PM)
Average-7 °F76%30.16 "Hg
* Reported Nov 15 7:00 PM — Nov 30 7:00 PM, Ulaanbaatar, Weather by CustomWeather, © 2015

Note: Actual official high and low records may vary slightly from our data, if they occured in-between our weather recording intervals... More about our weather records


Ulaanbaatar weather history for previous 24 hours

Time TempWeatherWind HumidityBarometerVisibility
7:00 PM
Mon, Nov 30
12 °FPassing clouds.No wind79%29.68 "Hg4 mi
6:30 PM10 °FPassing clouds.1 mph85%29.65 "Hg4 mi
6:00 PM12 °FPartly sunny.1 mph79%29.65 "Hg4 mi
5:30 PM14 °FPartly sunny.1 mph73%29.65 "Hg4 mi
5:00 PM14 °FPartly sunny.6 mph73%29.65 "Hg4 mi
4:30 PM14 °FScattered clouds.1 mph79%29.65 "Hg4 mi
4:00 PM14 °FScattered clouds.6 mph73%29.65 "Hg4 mi
3:30 PM14 °FPartly sunny.No wind73%29.65 "Hg4 mi
3:00 PM14 °FPartly sunny.1 mph73%29.62 "Hg4 mi
2:30 PM12 °FPartly sunny.3 mph73%29.62 "Hg4 mi
2:00 PM10 °FPartly sunny.3 mph79%29.62 "Hg3 mi
1:30 PM10 °FScattered clouds.No wind67%29.62 "Hg3 mi
1:00 PM9 °FPartly sunny.1 mph72%29.62 "Hg3 mi
12:30 PM7 °FPartly sunny.1 mph85%29.65 "Hg3 mi
12:00 PM3 °FPartly sunny.3 mph85%29.68 "Hg4 mi
11:30 AM3 °FPartly sunny.1 mph78%29.68 "Hg4 mi
11:00 AM1 °FPartly sunny.1 mph85%29.68 "Hg5 mi
10:30 AM0 °FPartly sunny.No wind84%29.68 "Hg5 mi
8:30 AM-6 °FPassing clouds.1 mph77%29.71 "Hg5 mi
8:00 AM-6 °FPassing clouds.No wind77%29.71 "Hg5 mi
6:30 AM-8 °FClear.1 mph77%29.74 "Hg10 mi
6:00 AM-9 °FClear.No wind77%29.74 "Hg10 mi
5:30 AM-6 °FClear.1 mph77%29.77 "Hg5 mi
5:00 AM-9 °FClear.1 mph84%29.77 "Hg5 mi
4:00 AM-13 °FClear.1 mph83%29.80 "Hg5 mi
3:00 AM-8 °FPassing clouds.1 mph77%29.83 "Hg5 mi
2:00 AM-11 °FPassing clouds.No wind76%29.83 "Hg5 mi
1:00 AM-8 °FPassing clouds.No wind77%29.86 "Hg5 mi
12:00 AM-8 °FPassing clouds.1 mph77%29.89 "Hg5 mi
11:30 PM
Sun, Nov 29
-8 °FPassing clouds.1 mph77%29.89 "Hg5 mi
11:00 PM-11 °FPassing clouds.No wind76%29.89 "Hg5 mi
10:30 PM-9 °FPassing clouds.No wind84%29.89 "HgN/A
10:00 PM-9 °FPassing clouds.No wind84%29.92 "HgN/A
9:30 PM-8 °FPassing clouds.1 mph84%29.92 "HgN/A
9:00 PM-13 °FPassing clouds.No wind83%29.92 "HgN/A
8:30 PM-8 °FPassing clouds.No wind84%29.92 "HgN/A
8:00 PM-11 °FPassing clouds.1 mph84%29.92 "HgN/A
7:30 PM-9 °FPassing clouds.1 mph77%29.95 "HgN/A
7:00 PM-4 °FPassing clouds.1 mph77%29.95 "HgN/A
Weather by CustomWeather, © 2015

See weather overviewHow to use our weather pages